Philadelphia, PA

12:25 PM EST on February 08, 2016 (GMT -0500)
Northeast Philadelphia

Weather History for KPNE - June, 2014

Change the Weather History Date:

Friday, June 13, 2014

  Actual Average Record
Temperature  
Mean Temperature 77 °F -  
Max Temperature 87 °F 77 °F 90 °F (2001)
Min Temperature 70 °F 58 °F 55 °F (2004)
Cooling Degree Days 12    
Growing Degree Days 27 (Base 50)    
Moisture  
Dew Point 68 °F    
Average Humidity 80    
Maximum Humidity 90    
Minimum Humidity 51    
Precipitation  
Precipitation 0.60 in - - ()
Sea Level Pressure  
Sea Level Pressure 29.82 in    
Wind  
Wind Speed 5 mph (SSE)    
Max Wind Speed 12 mph    
Max Gust Speed -    
Visibility 7 miles    
Events Rain    
Averages and records for this station are not official NWS values.
T = Trace of Precipitation, MM = Missing Value Source: NWS Daily Summary

Daily Weather History Graph

Daily Weather History Graph

Search for Another Location

Airport or City:

Trip Planner

Search our weather history database for the weather conditions in past years. The results will help you decide how hot, cold, wet, or windy it might be!

Date:

Astronomy

Jun. 13, 2014 Rise Set
Actual Time 5:30 AM EDT 8:30 PM EDT
Civil Twilight 4:57 AM EDT 9:02 PM EDT
Nautical Twilight 4:15 AM EDT 9:44 PM EDT
Astronomical Twilight 3:27 AM EDT 10:33 PM EDT
Moon 8:58 PM EDT (6/13) 6:07 AM EDT (6/13)
Length of Visible Light 16h 05m
Length of Day
14h 59m
Full, 100% of the Moon is Illuminated
Jun 13
Full
Jun 19
Last Quarter
Jun 27
New
Jul 5
First Quarter
Jul 12
Full

Hourly Weather History & Observations

Time (EDT) Temp. Heat Index Dew Point Humidity Pressure Visibility Wind Dir Wind Speed Gust Speed Precip Events Conditions
12:54 AM 71.1 °F - 66.9 °F 87% 29.89 in 3.0 mi East 8.1 mph - 0.00 in Rain Light Rain
1:54 AM 71.1 °F - 66.9 °F 87% 29.88 in 5.0 mi ESE 8.1 mph - 0.01 in Rain Light Rain
2:22 AM 71.1 °F - 66.9 °F 87% 29.87 in 1.8 mi ESE 4.6 mph - 0.11 in Rain Heavy Rain
2:38 AM 71.1 °F - 66.9 °F 87% 29.86 in 1.8 mi Calm Calm - 0.36 in Rain Light Rain
2:41 AM 71.1 °F - 66.9 °F 87% 29.86 in 3.0 mi ENE 3.5 mph - 0.36 in Rain Light Rain
2:52 AM 71.6 °F - 66.2 °F 83% 29.86 in 2.5 mi East 5.8 mph - 0.43 in Rain Rain
2:54 AM 71.1 °F - 66.9 °F 87% 29.86 in 3.0 mi East 4.6 mph - 0.43 in Rain Light Rain
3:17 AM 71.1 °F - 66.9 °F 87% 29.85 in 9.0 mi ESE 5.8 mph - 0.00 in   Overcast
3:54 AM 70.0 °F - 66.9 °F 90% 29.84 in 4.0 mi SE 6.9 mph - 0.01 in Rain Light Rain
4:54 AM 70.0 °F - 66.9 °F 90% 29.82 in 6.0 mi ESE 8.1 mph - 0.00 in Rain Light Rain
5:54 AM 71.1 °F - 66.9 °F 87% 29.82 in 6.0 mi SE 5.8 mph - 0.01 in Rain Light Rain
6:32 AM 71.1 °F - 66.9 °F 87% 29.83 in 1.8 mi SE 4.6 mph - 0.03 in Rain Heavy Rain
6:50 AM 71.6 °F - 66.2 °F 83% 29.83 in 2.5 mi SE 4.6 mph - 0.14 in Rain Light Rain
6:54 AM 71.1 °F - 68.0 °F 90% 29.83 in 4.0 mi Calm Calm - 0.14 in Rain Light Rain
7:54 AM 72.0 °F - 68.0 °F 87% 29.84 in 10.0 mi South 3.5 mph - 0.00 in   Overcast
8:29 AM 72.0 °F - 68.0 °F 87% 29.84 in 10.0 mi South 4.6 mph - N/A   Overcast
8:54 AM 72.0 °F - 68.0 °F 87% 29.84 in 10.0 mi SSW 5.8 mph - N/A   Overcast
9:54 AM 73.9 °F - 69.1 °F 85% 29.82 in 7.0 mi WSW 5.8 mph - N/A   Overcast
10:45 AM 77.0 °F - 69.1 °F 76% 29.82 in 9.0 mi Variable 4.6 mph - N/A   Overcast
10:54 AM 77.0 °F - 69.8 °F 78% 29.83 in 10.0 mi Calm Calm - N/A   Overcast
11:16 AM 79.0 °F - 69.1 °F 72% 29.82 in 10.0 mi West 4.6 mph - N/A   Mostly Cloudy
11:54 AM 81.0 °F 84.1 °F 69.1 °F 67% 29.82 in 10.0 mi Variable 4.6 mph - N/A   Scattered Clouds
12:31 PM 81.0 °F 83.8 °F 68.0 °F 65% 29.81 in 10.0 mi SW 5.8 mph - N/A   Mostly Cloudy
12:42 PM 82.0 °F 85.5 °F 69.1 °F 65% 29.81 in 10.0 mi South 5.8 mph - N/A   Mostly Cloudy
12:54 PM 82.4 °F 86.3 °F 69.8 °F 66% 29.80 in 10.0 mi SSW 5.8 mph - N/A   Mostly Cloudy
1:54 PM 84.9 °F 88.2 °F 68.0 °F 57% 29.77 in 10.0 mi Variable 5.8 mph - N/A   Partly Cloudy
2:54 PM 84.9 °F 87.1 °F 66.0 °F 53% 29.75 in 10.0 mi SW 10.4 mph - N/A   Partly Cloudy
3:54 PM 84.9 °F 86.6 °F 64.9 °F 51% 29.73 in 10.0 mi SW 11.5 mph - N/A   Scattered Clouds
4:54 PM 73.4 °F - 66.2 °F 78% 29.76 in 9.0 mi West 5.8 mph - N/A Rain Light Rain
6:54 PM 73.4 °F - 68.0 °F 83% 29.77 in 10.0 mi SW 5.8 mph - N/A   Clear
7:54 PM 73.0 °F - 68.0 °F 84% 29.79 in 8.0 mi Calm Calm - N/A   Clear
8:54 PM 72.0 °F - 68.0 °F 87% 29.79 in 8.0 mi SE 3.5 mph - N/A   Partly Cloudy
9:54 PM 72.0 °F - 66.9 °F 84% 29.81 in 7.0 mi Calm Calm - N/A   Mostly Cloudy
10:54 PM 72.0 °F - 68.0 °F 87% 29.81 in 8.0 mi Calm Calm - N/A   Clear
11:54 PM 71.1 °F - 66.9 °F 87% 29.82 in 6.0 mi Calm Calm - N/A   Clear